Location: Asheville, NC
(35.6000°N, 82.5500°W)
Time: 00:56:03
(UTC-04:00)

XW-2C - Pass Details

Date: 04 January 2018
Orbit: 510 x 531 km, 97.5° (Epoch: 23 June)

Event Time Altitude Azimuth Distance (km) Brightness Sun altitude
Rises 18:45:46 0° 203° (SSW) 2,649 ? -15.0°
Reaches altitude 10° 18:48:26 10° 223° (SW) 1,769 ? -15.5°
Maximum altitude 18:51:00 17° 266° (W) 1,378 ? -16.0°
Drops below altitude 10° 18:53:36 10° 308° (NW) 1,782 ? -16.5°
Sets 18:56:19 0° 329° (NNW) 2,679 ? -17.0°
